Location: ??????
(51.1667°N, 71.4500°E)
Time: 19:00:14
(UTC+00:00)

Daily predictions for brighter satellites

Satellite Brightness Start Highest point End
(mag) Time Altitude Azimuth Time Altitude Azimuth Time Altitude Azimuth
Cosmos 2369 4.0 16:06:43 10° SW 16:12:27 78° WNW 16:18:12 10° NNE
CENTAUR R/B 2.9 16:09:33 10° S 16:15:04 41° ESE 16:21:33 10° NE
CZ-2C R/B 3.8 16:12:49 10° NNE 16:17:35 73° ESE 16:22:21 10° S
Cosmos 2221 Rocket 4.3 16:13:41 10° SSW 16:18:06 59° WNW 16:22:31 10° N
Aureole 2 Rocket 4.0 16:17:45 10° WNW 16:19:37 19° WSW 16:21:26 10° SSW
Lacrosse 5 1.9 16:14:47 10° WNW 16:19:53 88° NNE 16:24:58 10° ESE
Cosmos 1624 Rocket 4.1 16:15:16 10° S 16:20:33 66° ESE 16:25:50 10° NNE
Okean 2 Rocket 4.4 16:16:55 10° NNW 16:21:06 39° W 16:25:17 10° SSW
Resurs 01 Rocket 2.9 16:17:49 10° SSW 16:21:57 39° W 16:26:07 10° NNW
SL-8 R/B 3.7 16:17:47 10° WSW 16:22:32 62° S 16:27:16 10° E
Cosmos 1980 Rocket 2.3 16:17:52 10° SSW 16:23:32 86° WNW 16:29:11 10° NNE
Cosmos 1378 Rocket 3.5 16:20:21 10° S 16:24:40 83° E 16:29:04 10° NNE
USA 267 3.6 16:18:29 10° E 16:24:59 68° NNE 16:31:29 10° WNW
BREEZE-M DEB (TANK) 3.7 16:30:06 10° SE 16:30:35 10° ESE 16:31:07 10° ESE
Cosmos 1140 Rocket 4.5 16:25:44 10° NW 16:30:42 43° WSW 16:35:38 10° S
Cosmos 2100 Rocket 4.4 16:27:35 10° N 16:33:50 52° ENE 16:40:01 10° SSE
SPOT 1/Viking Rocket 4.0 16:29:02 10° S 16:34:06 59° WSW 16:39:12 10° NNW
Genesis I 4.4 16:34:00 10° S 16:37:05 23° ESE 16:40:14 10° ENE
Terra 2.1 16:34:25 10° SSE 16:39:06 59° ENE 16:43:48 10° N
Cosmos 1626 3.8 16:40:55 11° SE 16:43:25 19° E 16:46:05 10° NE
Cosmos 292 Rocket 4.1 16:39:17 10° S 16:43:54 47° ESE 16:48:32 10° NE
Cosmos 1953 2.9 16:40:03 10° N 16:44:00 46° ENE 16:47:35 12° SSE
Cosmos 1452 Rocket 4.1 16:39:25 10° S 16:44:17 39° ESE 16:49:10 10° NE
Cosmos 1844 Rocket 3.4 16:38:59 10° NNW 16:44:28 46° NE 16:49:55 10° SE
Aureole 1 Rocket 4.4 16:39:45 10° NNW 16:44:37 46° ENE 16:50:53 10° SE
ATLAS CENTAUR R/B 3.4 16:41:12 10° NNW 16:44:38 24° NNE 16:48:12 10° E
BREEZE-M DEB (TANK) 3.7 16:44:25 10° SSW 16:46:47 26° SE 16:51:16 10° E
Cosmos 2056 Rocket 3.7 16:43:52 10° SSW 16:49:03 78° WNW 16:54:24 10° NNE
H-2A R/B 4.2 16:45:56 10° NNE 16:49:42 35° E 16:53:06 12° SSE
Cosmos 220 Rocket 3.9 16:46:49 10° SSW 16:51:08 77° ESE 16:55:26 10° NNE
Cosmos 1850 Rocket 4.2 16:47:43 10° NNW 16:53:04 70° ENE 16:57:49 13° SSE
CARTOSAT-1 4.2 16:50:55 10° S 16:55:08 52° W 16:59:23 10° NNW
Cosmos 2263 Rocket 3.0 16:50:06 10° NW 16:55:29 44° WSW 17:00:51 10° S
Cosmos 1674 3.1 16:53:17 12° SSE 16:56:29 44° E 17:00:03 10° NNE
Cosmos 2333 Rocket 4.0 16:54:09 10° SE 16:57:01 14° E 16:59:52 10° ENE
Cosmos 1908 3.4 16:56:02 10° N 16:59:55 60° ENE 17:03:04 15° SSE
Cosmos 2173 Rocket 4.1 16:54:13 10° N 17:00:36 73° ENE 17:06:29 12° SSE
ARIANE 5 R/B 3.4 16:56:32 10° S 17:00:49 48° W 17:05:11 10° NNW
Cosmos 1975 Rocket 3.1 16:57:42 10° S 17:01:58 62° E 17:06:19 10° NNE
Cosmos 2016 Rocket 4.3 16:56:18 10° N 17:02:16 52° ENE 17:07:30 14° SSE
NOSS 3-2 (C) 3.4 16:57:34 10° SSW 17:03:10 64° SE 17:09:41 10° NE
NOSS 3-2 (A) 3.5 16:59:44 10° SW 17:05:29 85° NW 17:12:13 10° NE
Cosmos 1727 Rocket 4.1 17:00:28 10° S 17:06:49 86° WNW 17:13:09 10° N
Cosmos 1707 3.3 17:04:00 10° SSW 17:07:49 58° WNW 17:11:41 10° N
Cosmos 1025 Rocket 3.7 17:05:07 14° SSE 17:08:31 40° E 17:12:38 10° NNE
Cosmos 2285 Rocket 4.1 17:03:47 10° SSW 17:10:15 87° WNW 17:16:44 10° NNE
Cosmos 1725 Rocket 4.4 17:04:25 10° N 17:10:29 52° ENE 17:15:37 14° SSE
Cosmos 1420 Rocket 4.2 17:07:04 10° SSW 17:12:15 76° WNW 17:17:30 10° NNE
Cosmos 1844 4.0 17:09:08 10° NNW 17:14:40 61° NE 17:19:29 14° SE
Cosmos 1802 Rocket 4.1 17:08:59 10° N 17:15:13 75° ENE 17:20:38 15° SSE
In-Cosmos 22 4.1 17:10:18 10° SSW 17:15:37 86° WNW 17:20:56 10° NNE
ATLAS 3B R/B 3.9 17:17:59 14° SE 17:21:20 21° ESE 17:26:06 10° ENE
Cosmos 1741 Rocket 4.1 17:17:14 10° NNW 17:22:30 76° WSW 17:26:43 16° SSE
Cosmos 1340 3.6 17:26:21 19° SSE 17:28:27 33° E 17:31:52 10° NNE
Cosmos 2219 Rocket 3.6 17:26:31 15° SE 17:29:22 21° E 17:33:31 10° NE
ERS-1 Rocket 4.0 17:25:24 10° SSW 17:30:06 39° W 17:34:51 10° NNW
SL-23 DEB 4.5 17:28:01 10° W 17:32:01 90° N 17:39:02 10° E
USA 215 3.3 17:26:10 10° ENE 17:32:38 60° SE 17:39:05 10° SW
GEOS 3 Rocket 3.9 17:30:30 17° SSE 17:34:39 59° SW 17:39:57 10° NW
ALOS 2 4.0 17:33:37 12° ESE 17:36:56 28° ENE 17:40:42 10° N
USA 238 DEB 3.9 17:32:05 10° SW 17:38:41 75° NW 17:45:42 10° NE
USA 238 3.9 17:32:11 10° SW 17:38:47 75° NW 17:45:49 10° NE
SL-16 R/B 2.4 17:34:41 10° SW 17:40:22 76° WNW 17:46:05 10° NNE
Cosmos 2061 Rocket 4.1 17:35:18 10° N 17:41:47 89° ENE 17:46:55 17° S
Cosmos 1544 Rocket 3.8 17:38:49 10° NNW 17:43:16 69° W 17:46:32 18° S
Meteor 2-5 Rocket 4.1 17:40:27 18° SSE 17:44:17 47° E 17:49:37 10° NNE
SPOT 5 4.4 17:40:01 10° SSW 17:44:38 31° W 17:49:09 10° NNW
Cosmos 2322 Rocket 2.3 17:40:29 10° SSW 17:46:13 85° WNW 17:51:58 10° NNE
COSMOS 2428 4.0 17:44:49 17° SE 17:47:39 24° ESE 17:52:08 10° NE
Cosmos 2360 Rocket 2.2 17:42:37 12° SSW 17:47:53 64° ESE 17:53:28 10° NE
Cosmos 1455 Rocket 4.2 17:44:39 10° NNW 17:48:48 39° W 17:52:27 13° SSW
Cosmos 1459 Rocket 4.5 17:45:46 10° NNW 17:51:38 53° W 17:56:52 13° SSW
SL-24 R/B 4.4 17:47:10 10° N 17:52:13 86° W 17:55:56 17° S
Cosmos 2237 4.2 17:48:05 10° SSW 17:53:47 83° ESE 17:59:31 10° NNE
Cosmos 1900 4.3 17:49:04 10° NW 17:54:01 83° NE 17:57:35 19° SE
Cosmos 2322 4.4 17:51:58 19° SSE 17:55:20 37° ESE 18:00:30 10° NE
Cosmos 1461 2.9 17:51:32 10° NW 17:55:48 66° SW 17:58:12 23° SSE
DNEPR-1 R/B 3.7 17:53:25 10° NW 17:57:40 70° NE 18:00:55 17° SE
Cosmos 389 Rocket 3.7 17:56:39 10° N 17:59:44 30° ENE 18:01:32 19° ESE
BREEZE-M DEB (TANK) 4.2 18:00:11 10° WSW 18:01:07 11° SW 18:01:07 11° SW
Lacrosse 5 3.1 17:58:13 10° WNW 18:02:24 26° SW 18:04:51 18° S
SL-8 R/B 3.8 18:00:09 10° W 18:04:50 54° SSW 18:09:05 12° ESE
CENTAUR R/B 3.3 17:59:19 10° WSW 18:05:29 61° NW 18:12:55 10° NE
Cosmos 2278 Rocket 3.3 18:00:11 10° NNW 18:05:30 39° NE 18:10:47 10° ESE
Cosmos 1346 Rocket 4.0 18:04:45 21° SE 18:06:30 30° E 18:10:02 10° NNE
Meteor 2-10 Rocket 3.7 18:02:24 10° N 18:07:36 62° ENE 18:10:56 21° SSE
USA 267 3.3 18:02:48 16° SE 18:08:05 62° SW 18:14:36 10° WNW
Cosmos 1110 Rocket 4.0 18:04:50 13° SSW 18:09:31 88° WNW 18:14:47 10° NNE
Lacrosse 5 rocket 2.5 18:11:07 20° ESE 18:11:07 20° ESE 18:13:26 10° E
Cosmos 2123 Rocket 4.2 18:08:29 14° SSW 18:13:58 74° WNW 18:20:20 10° N
Genesis I 4.0 18:10:35 10° WSW 18:14:22 52° NW 18:18:17 10° NE
Cosmos 1536 Rocket 3.7 18:13:41 20° SSW 18:16:48 79° WNW 18:21:18 10° N
Terra 3.7 18:13:39 10° SW 18:17:14 21° W 18:20:51 10° NW
Cosmos 1626 3.3 18:15:24 13° SW 18:18:21 38° WNW 18:21:52 10° N
Cosmos 1455 3.2 18:20:00 10° N 18:23:37 37° ENE 18:25:41 21° SE
ATLAS CENTAUR R/B 1.4 18:19:43 10° NW 18:24:00 87° SW 18:26:52 22° SE
Cosmos 2233 Rocket 4.1 18:21:06 10° NNW 18:27:14 72° W 18:31:30 21° S
Cosmos 1300 3.5 18:24:39 10° NNW 18:28:17 42° W 18:30:18 22° SSW
Cosmos 1844 Rocket 3.6 18:23:05 10° NW 18:28:17 38° WSW 18:31:43 19° SSW
Cosmos 968 Rocket 3.4 18:25:39 10° NNW 18:30:48 89° WSW 18:34:01 23° SSE
Cosmos 2333 4.2 18:29:21 17° SSW 18:33:56 80° ESE 18:39:41 10° NNE
Cosmos 405 4.4 18:32:29 10° NNW 18:35:31 29° W 18:37:08 20° SW
SAR-Lupe-2 4.4 18:33:49 10° NNE 18:37:11 37° E 18:38:27 27° SE
Cosmos 2333 Rocket 2.2 18:36:05 19° SSW 18:40:18 75° ESE 18:46:03 10° NNE
COBE Rocket 4.1 18:43:32 24° S 18:46:36 66° W 18:51:37 10° NNW
Meteor 1-24 Rocket 3.8 18:45:45 19° SSW 18:49:33 69° WNW 18:55:00 10° N
Cosmos 1867 3.6 18:45:18 10° NW 18:50:50 83° NE 18:55:14 16° SE
Cosmos 2058 Rocket 3.3 18:48:08 10° N 18:52:37 63° ENE 18:55:07 25° SSE
Cosmos 2228 3.5 18:51:48 10° NNW 18:56:06 52° W 18:58:23 25° SSW
Cosmos 1503 Rocket 4.2 18:51:00 10° NNW 18:56:25 72° ENE 19:00:13 20° SE
Thor Agena Rocket 4.0 18:53:17 10° NNE 18:58:25 49° E 19:01:21 24° SSE
Cosmos 1464 Rocket 4.0 18:58:29 10° N 19:04:51 86° E 19:09:08 23° S
Cosmos 1441 Rocket 4.2 19:05:40 24° SE 19:07:17 35° E 19:10:51 10° NNE
ATLAS CENTAUR R/B 4.1 19:05:46 21° SSE 19:09:12 35° ESE 19:20:41 10° NE
Cosmos 1943 Rocket 4.0 19:04:34 10° NNW 19:09:19 28° NE 19:14:03 10° ESE
ATLAS 3B R/B 2.6 19:05:09 13° SW 19:11:03 84° SE 19:17:54 10° NE
Cosmos 2219 Rocket 2.3 19:08:12 17° SW 19:12:42 78° WNW 19:18:25 10° NNE
ALOS 2 3.4 19:11:00 24° SSW 19:13:09 39° W 19:17:18 10° NNW
BREEZE-M DEB (TANK) 3.1 19:07:19 10° SW 19:13:30 35° SSE 19:16:08 10° E
SL-16 R/B 4.2 19:10:33 11° SE 19:13:35 16° E 19:16:52 10° ENE
Cosmos 1726 Rocket 4.0 19:09:35 10° NNW 19:13:57 53° W 19:16:13 26° SSW
USA 215 3.6 19:09:16 10° ENE 19:15:46 68° NNW 19:22:15 10° W
PSLV R/B 4.1 19:12:39 10° NNE 19:16:45 45° E 19:18:50 26° SSE
Meteor 1-4 Rocket 3.5 19:15:42 10° N 19:19:03 39° ENE 19:20:56 21° SE
NOSS 0 Rocket 4.2 19:15:38 23° S 19:19:25 57° ESE 19:25:31 10° NE
Cosmos 2237 Rocket 2.7 19:18:11 24° SSE 19:21:13 45° ESE 19:26:33 10° NE
Elektron 1 4.3 19:20:23 10° NW 19:23:39 58° NE 19:26:21 11° ESE
Cosmos 1892 Rocket 3.8 19:26:06 25° SSW 19:28:33 65° WNW 19:32:59 10° N
Cosmos 2322 Rocket 4.4 19:26:37 10° W 19:31:07 23° NW 19:35:38 10° NNE
COSMOS 2428 2.9 19:26:48 16° SW 19:31:24 70° WNW 19:37:11 10° NNE
Cosmos 2369 Rocket 4.3 19:26:48 10° NNW 19:31:32 26° NE 19:36:15 10° E
Uosat 12 SS-18 rocket 4.2 19:29:01 23° SSW 19:31:45 78° SE 19:36:56 10° NE
Cosmos 2360 Rocket 3.8 19:27:19 10° WSW 19:32:18 31° NW 19:37:18 10° NNE
Cosmos 389 Rocket 4.2 19:31:38 10° NW 19:34:12 20° W 19:35:19 17° WSW
Cosmos 2034 Rocket 4.0 19:29:11 10° NNW 19:35:26 81° W 19:39:33 22° S
Cosmos 2346 Rocket 4.5 19:36:31 23° SSW 19:40:33 82° W 19:46:45 10° N
FALCON 9 DEB 2.9 19:38:05 16° WSW 19:40:40 81° SSE 19:44:04 10° ENE
FALCON 9 DEB 4.0 19:41:15 27° SE 19:41:15 27° SE 19:43:44 10° E
EO 1 Del DPAF 3.5 19:37:39 10° NNE 19:41:19 54° ESE 19:42:58 29° SSE
SJ 16-02 2.6 19:37:49 10° N 19:41:56 37° ENE 19:46:01 10° SE
Cosmos 2297 4.5 19:36:58 10° NNW 19:42:29 51° NE 19:47:59 10° SE
Cosmos 1184 Rocket 3.0 19:41:15 33° SW 19:42:30 61° WNW 19:45:45 10° N
Cosmos 1346 Rocket 4.3 19:40:13 15° WSW 19:42:50 29° WNW 19:46:22 10° N
CZ-2D R/B 4.0 19:39:50 10° NE 19:43:30 19° E 19:47:08 10° SE
SL-16 R/B 3.8 19:38:03 10° ESE 19:43:38 37° ENE 19:49:13 10° N
FALCON 9 DEB 3.5 19:44:17 35° SSE 19:44:20 35° SSE 19:47:12 10° E
SL-4 R/B 3.8 19:48:21 14° SE 19:48:21 14° SE 19:49:58 10° ESE
Resurs 1-4 Rocket 3.9 19:45:19 10° NE 19:49:25 22° E 19:53:29 10° SE
Lacrosse 5 rocket 1.0 19:46:40 16° WSW 19:49:27 80° NNW 19:53:03 10° ENE
Cosmos 1354 Rocket 4.3 19:44:28 10° NNW 19:49:40 54° WSW 19:52:45 24° S
Cosmos 2278 Rocket 2.6 19:44:18 10° NW 19:49:44 47° WSW 19:52:55 23° S
Cosmos 1607 4.0 19:44:13 10° NW 19:50:37 69° SW 19:55:56 15° SSE
FALCON 9 DEB 3.4 19:51:36 37° SSE 19:51:52 38° SSE 19:54:47 10° E
Cosmos 1777 Rocket 4.0 19:48:23 10° NNW 19:53:42 89° ENE 19:57:47 17° SSE
Tsikada Rocket 4.0 19:53:19 22° S 19:57:33 83° E 20:03:46 10° NNE
Cosmos 1455 4.0 19:56:03 10° NW 19:58:59 21° W 20:00:33 17° WSW
Cosmos 192 4.3 19:56:49 24° SSW 19:59:47 82° ESE 20:04:45 10° NNE
ATLAS CENTAUR R/B 3.4 19:59:50 10° WNW 20:02:21 15° WSW 20:02:59 15° WSW
Cosmos 1626 Rocket 3.6 20:00:13 26° SSW 20:02:45 81° W 20:07:15 10° N
Okean 1-7 Rocket 4.2 20:03:06 22° SW 20:05:48 49° WNW 20:10:10 10° N
Cosmos 1602 Rocket 3.6 20:04:48 25° S 20:07:24 84° E 20:11:55 10° NNE
YAOGAN 11 4.1 20:10:21 21° SSE 20:13:14 83° WSW 20:17:43 10° NNW
Cosmos 724 4.4 20:07:28 10° NW 20:13:44 86° NE 20:19:49 10° SE
Cosmos 1758 Rocket 3.9 20:11:08 22° S 20:13:55 61° E 20:18:19 10° NNE
ADEOS II 4.2 20:11:59 10° NE 20:15:30 18° E 20:19:00 10° SE
Cosmos 1328 4.2 20:17:04 24° SW 20:19:09 50° WNW 20:22:58 10° N
Cosmos 2333 Rocket 3.9 20:20:15 10° W 20:25:10 28° NW 20:30:05 10° NNE
GENESIS II 4.1 20:26:22 23° SW 20:28:43 85° SE 20:32:38 10° NE
Cosmos 1980 4.0 20:25:41 16° SW 20:30:14 62° NW 20:35:55 10° NNE
GP-B 4.0 20:26:26 10° NNW 20:30:32 37° W 20:33:12 19° SW
BREEZE-M DEB (TANK) 3.8 20:26:57 10° W 20:31:34 81° S 20:48:38 10° E
Cosmos 1812 Rocket 4.3 20:36:34 10° NNW 20:40:35 38° W 20:43:03 20° SSW
BREEZE-M DEB (TANK) 2.3 20:41:27 33° S 20:41:50 37° SSE 20:44:46 10° E
Helios 1A 3.5 20:43:42 21° SSW 20:46:09 43° W 20:50:11 10° NNW
NOSS 3-1 (C) 3.9 20:44:02 17° S 20:47:51 43° ESE 20:53:44 10° NE
FALCON 9 DEB 2.8 20:48:30 18° WSW 20:50:42 76° SSE 20:53:51 10° ENE
Cosmos-2242 3.5 20:48:01 10° NNW 20:52:15 48° W 20:55:11 19° SSW
Cosmos 1943 Rocket 2.1 20:48:04 10° NNW 20:53:34 69° WSW 20:59:01 10° SSE
UNK 3.7 20:49:16 11° SSE 20:53:39 87° ENE 20:58:18 10° NNW
Meteor 1-4 Rocket 4.4 20:51:25 10° NW 20:53:43 17° W 20:55:03 14° WSW
Cosmos 1892 2.7 20:51:34 20° S 20:54:11 87° W 20:58:05 10° N
CZ-4 R/B 4.0 20:50:03 10° N 20:54:38 60° WNW 20:58:05 17° SW
Cosmos 2058 4.0 20:52:34 11° SSE 20:56:12 39° E 21:00:01 10° NNE
SL-16 R/B 2.2 20:52:25 17° SSW 20:56:50 83° ESE 21:02:33 10° NNE
Cosmos 2219 Rocket 4.3 20:53:17 10° W 20:57:36 22° NW 21:01:57 10° NNE
NPP 4.0 20:52:55 10° NNE 20:58:17 60° ESE 21:03:03 13° S
USA 215 4.1 20:52:04 10° ENE 20:58:24 54° N 21:04:44 10° WNW
ATLAS 3B R/B 3.9 20:56:16 10° W 21:02:26 39° NNW 21:08:52 10° NE
MOZ.5/SAFIR/RUBIN 5/SL-8 4.3 20:59:30 17° SSW 21:02:47 42° W 21:07:19 10° NNW
Cosmos 2098 Rocket 4.5 20:57:21 10° SSE 21:03:25 49° E 21:08:22 10° NNE
Cosmos 2237 Rocket 3.2 21:00:05 10° WSW 21:05:22 40° NW 21:10:41 10° NNE
Cosmos 1408 2.6 21:04:51 19° SSW 21:07:24 75° W 21:11:06 10° N
Helios 1B rocket 2.6 21:03:19 10° NNE 21:07:25 67° ESE 21:10:48 14° S
Cosmos 2279 Rocket 4.2 21:02:51 10° NNW 21:08:57 56° W 21:14:24 13° SSW
Cosmos 2263 4.5 21:07:28 10° NNW 21:13:12 74° ENE 21:18:51 10° SE
Cosmos 405 Rocket 2.7 21:11:12 15° S 21:14:11 75° E 21:17:52 10° NNE
Cosmos 1825 Rocket 4.0 21:11:38 16° SSW 21:15:01 51° WNW 21:19:24 10° N
Cosmos 2369 Rocket 2.2 21:10:31 10° NNW 21:16:17 84° WSW 21:22:00 10° SSE
FALCON 9 DEB 2.9 21:13:21 10° WSW 21:16:29 81° NNW 21:19:38 10° ENE
FALCON 9 DEB 3.6 21:14:17 10° W 21:17:40 61° N 21:21:03 10° E
FALCON 9 DEB 3.0 21:16:44 10° W 21:19:50 72° NNW 21:22:55 10° ENE
SJ 16-02 2.3 21:16:36 10° NW 21:20:24 29° W 21:23:21 14° SSW
Cosmos 2221 2.5 21:16:57 10° N 21:21:19 86° E 21:25:37 10° S
Cosmos 1356 3.5 21:19:23 17° SSW 21:21:54 62° WNW 21:25:17 10° N
Cosmos 1869 4.3 21:19:50 10° NNW 21:23:31 32° W 21:26:25 14° SSW
CZ-2D R/B 2.1 21:18:54 10° NNE 21:24:09 75° WNW 21:28:50 13° SSW
Cosmos 2297 4.5 21:21:28 10° NW 21:26:28 33° WSW 21:31:19 11° SSW
SL-4 R/B 1.9 21:23:52 14° SW 21:26:54 51° SSE 21:30:19 10° E
SL-16 R/B 2.8 21:21:03 10° S 21:27:05 52° W 21:33:09 10° NNW
FALCON 9 DEB 3.1 21:24:18 10° W 21:27:24 70° NNW 21:30:31 10° ENE
Lacrosse 5 rocket 2.7 21:25:36 10° WNW 21:28:54 33° N 21:32:13 10° ENE
Resurs 1-4 Rocket 2.3 21:24:25 10° N 21:29:42 66° WNW 21:34:35 12° SSW
Meteor 2-2 Rocket 4.4 21:24:54 10° NNW 21:30:52 68° W 21:36:51 10° S
Lacrosse 4 Rocket 3.8 21:28:08 10° NNW 21:31:44 27° NE 21:35:16 10° E
USA 281 3.3 21:26:38 10° SSE 21:33:12 89° ENE 21:39:51 10° NNW
NOSS 2-3 (D) 3.8 21:31:25 13° SSW 21:35:02 64° SE 21:39:58 10° NE
Cosmos 1953 Rocket 4.1 21:31:29 13° SSW 21:35:07 47° WNW 21:39:23 10° N
IRS-1D 4.0 21:31:37 10° NNE 21:36:49 60° ESE 21:41:51 10° S
SeaSat 1 3.2 21:34:34 10° NE 21:39:20 45° ESE 21:44:04 10° S
Cosmos 1763 Rocket 3.5 21:34:38 11° SSW 21:39:26 82° ESE 21:44:35 10° NNE
Cosmos 1437 Rocket 3.0 21:37:00 10° NNW 21:40:54 52° W 21:44:39 10° S
Cosmos 1825 2.5 21:38:18 13° SSW 21:41:36 53° WNW 21:45:19 10° N
Cosmos 1242 Rocket 2.5 21:39:12 10° NNW 21:42:46 89° WSW 21:46:21 10° S
Cosmos 1437 3.3 21:41:50 10° N 21:44:34 48° ENE 21:47:17 10° SSE
CZ-3B R/B 2.7 21:38:52 10° WNW 21:46:52 64° N 21:49:41 10° E
ADEOS Rocket 3.5 21:41:07 10° S 21:48:37 69° WSW 21:55:31 10° NNW
BREEZE-M R/B 3.9 21:46:04 11° SSW 21:49:04 31° SE 21:54:13 10° E
Nadezhda 4 Rocket 4.1 21:42:57 10° SSW 21:49:05 70° WNW 21:55:14 10° N
Cosmos 1656 Rocket 3.7 21:43:25 10° NNW 21:49:08 75° WSW 21:54:47 10° SSE
X-37B 2.6 21:47:28 11° SSW 21:49:18 16° SSE 21:51:18 10° ESE
Meteor 1-29 3.0 21:47:33 10° N 21:50:59 74° WNW 21:54:23 10° SSW
Cosmos 1842 Rocket 3.8 21:47:34 10° NNW 21:51:47 49° W 21:55:57 10° SSW
Cosmos 2026 Rocket 4.4 21:46:12 10° S 21:52:21 67° E 21:58:38 10° NNE
NOSS 2-3 (C) 3.7 21:48:16 11° SW 21:52:22 88° SE 21:57:29 10° NE
ADEOS II 2.1 21:50:33 10° NNE 21:55:50 80° WNW 22:01:06 10° SSW
Aureole 3 Rocket 2.7 21:55:33 10° NNW 21:58:46 61° W 22:02:46 10° S
ATLAS 5 CENTAUR R/B 3.9 21:57:15 10° SE 21:59:04 13° ESE 22:00:58 10° E
Cosmos 1606 3.0 22:00:21 10° NNW 22:04:08 52° W 22:07:51 10° S
Cosmos 1633 2.5 22:01:56 10° S 22:05:27 83° E 22:08:59 10° NNE
Cosmos 1898 Rocket 4.1 22:02:21 10° NW 22:07:10 37° WSW 22:11:54 10° S
Cosmos 1151 Rocket 4.4 22:08:00 10° N 22:12:05 41° ENE 22:16:07 10° SE
CZ-4C R/B 3.0 22:09:26 10° S 22:12:56 62° WSW 22:16:23 10° NNW
Cosmos 1782 4.1 22:09:25 10° N 22:13:15 44° ENE 22:17:05 10° SSE
Cosmos 1933 3.5 22:11:15 10° N 22:15:21 80° E 22:19:27 10° SSE
Cosmos 1943 3.3 22:11:52 10° SSW 22:17:30 89° ESE 22:23:12 10° NNE
